Location: Newark
(53.3503°N, 9.6158°W)
Time: 18:53:47
(UTC+00:00)

Envisat - Pass Details

Date: 23 October 2019
Orbit: 764 x 766 km, 98.1° (Epoch: 19 November)

Event Time Altitude Azimuth Distance (km) Brightness Sun altitude
Rises 06:00:11 0° 29° (NNE) 3,246 6.6 -12.4°
Reaches altitude 10° 06:04:00 10° 58° (ENE) 2,312 6.4 -11.9°
Maximum altitude 06:06:09 13° 83° (E) 2,134 6.7 -11.5°
Drops below altitude 10° 06:08:17 10° 108° (ESE) 2,304 6.9 -11.2°
Sets 06:12:03 0° 137° (SE) 3,223 7.0 -10.7°
